Location: Waco, TX
(31.5480°N, 97.1670°W)
Time: 04:30:25
(UTC-05:00)

ISS - Pass Details

Date: 12 May 2021
Orbit: 417 x 422 km, 51.6° (Epoch: 15 May)

Event Time Altitude Azimuth Distance (km) Brightness Sun altitude
Rises 23:31:03 0° 262° (W) 2,350 - -33.0°
Reaches altitude 10° 23:33:43 10° 285° (WNW) 1,491 - -33.3°
Maximum altitude 23:35:53 16° 325° (NW) 1,183 - -33.6°
Drops below altitude 10° 23:38:03 10° 6° (N) 1,496 - -33.8°
Sets 23:40:45 0° 29° (NNE) 2,363 - -34.1°
